CAPE
0 0 0 0 0 0 0 0 1 4 7 75 315 667 759 757 683 510 661 448 388 215 49 2 0 0 0 0 0 0 0 0 0 0 1 2 1 0 0 0 0 0 1 1
0 0 0 0 0 0 0 0 0 0 18 80 442 622 484 662 564 716 715 489 251 88 2 0 0 0 0 0 0 0 0 0 0 1 1 0 0 0 0 0 0 0 0 0
0 0 0 0 0 0 0 0 4 13 90 180 329 494 374 395 601 684 686 419 178 36 0 0 0 0 0 0 0 0 0 0 0 0 0 0 0 0 0 0 0 0 0 0
0 0 0 0 0 0 1 7 3 15 48 293 442 553 442 417 616 735 590 191 29 0 0 0 0 0 0 0 0 0 0 0 0 0 0 0 0 0 0 0 0 0 0 0
0 0 0 0 0 0 0 3 16 68 199 411 421 437 384 478 570 647 497 50 0 0 0 0 0 0 0 0 0 0 0 0 0 0 0 0 0 0 0 0 0 0 0 0
32 20 0 1 67 78 77 5 59 167 282 383 353 145 295 629 920 932 240 0 0 0 0 0 0 0 0 0 0 0 0 0 0 0 0 0 0 0 0 0 0 0 0 0
11 42 34 42 44 179 156 93 272 310 398 484 504 633 591 816 751 315 61 0 0 0 0 0 0 0 0 0 0 0 0 0 0 0 0 0 0 0 0 0 0 0 0 0
13 9 11 51 154 225 149 259 416 416 437 647 615 473 581 547 347 34 0 0 0 0 0 0 0 0 0 0 0 0 0 0 0 0 0 0 0 0 0 0 0 0 0 0
27 27 43 249 452 383 335 513 700 515 534 529 450 329 405 287 36 0 0 0 0 0 0 0 0 0 0 0 0 0 0 0 0 0 0 0 0 0 0 0 0 0 0 0
59 108 61 168 359 206 471 786 984 661 425 458 6 178 183 43 0 0 0 0 0 0 0 0 0 0 0 0 0 0 0 0 0 0 0 0 0 0 0 0 0 0 0 0
282 305 219 212 285 392 758 925 1158 553 287 280 11 89 66 0 0 0 0 0 0 0 0 0 0 0 0 0 0 0 0 0 0 0 0 0 0 0 0 0 0 0 0 0
568 291 305 253 263 378 779 953 749 216 385 39 11 0 0 0 0 0 0 0 0 0 0 0 0 0 0 0 0 0 0 0 0 0 0 0 0 0 0 0 0 0 0 0
463 335 309 270 326 551 766 758 616 518 436 83 0 0 0 0 0 0 0 0 0 0 0 0 0 0 0 0 0 0 0 0 0 0 0 0 0 0 0 0 0 0 0 0
273 295 430 349 480 432 436 235 56 16 0 0 0 0 0 0 0 0 0 0 0 0 0 0 0 0 0 0 0 0 0 0 0 0 0 0 0 0 0 0 0 0 0 0
326 300 265 166 118 57 0 0 1 0 0 0 0 0 0 0 0 0 0 0 0 0 0 0 0 0 0 0 0 0 0 0 0 0 0 0 0 0 0 0 8 8 8 5
169 98 72 63 37 18 1 1 4 0 0 0 0 0 0 0 0 0 0 0 0 0 0 0 0 0 0 0 0 0 0 0 0 0 0 0 0 0 5 21 29 31 27 22
182 128 62 40 15 0 0 0 0 0 0 0 0 0 0 0 0 0 0 0 0 0 0 0 0 0 0 0 0 0 0 0 0 0 0 0 0 0 10 26 29 25 22 6
123 85 132 118 25 0 0 0 0 0 0 0 0 0 0 0 0 0 0 0 0 0 0 0 0 0 0 0 0 0 1 0 0 0 0 0 1 1 7 9 10 19 6 10
43 1 127 61 15 0 0 0 0 0 0 0 0 0 0 0 0 0 0 0 0 0 0 0 0 0 0 0 0 0 0 0 0 0 0 0 0 0 1 3 7 3 0 0
1 0 0 0 0 0 0 0 0 0 0 0 0 0 0 0 0 0 0 0 0 0 0 0 0 0 0 0 0 0 1 1 2 0 0 0 0 0 1 0 0 0 0 0
0 0 0 0 0 0 0 0 0 0 0 0 0 0 0 0 0 0 0 0 0 0 0 0 0 0 0 0 0 0 0 0 0 0 0 0 0 1 0 0 0 0 0 0
0 0 0 0 1 0 0 0 0 0 0 0 0 0 0 0 0 0 0 0 0 0 0 0 0 0 1 0 3 4 8 5 3 2 0 0 0 0 0 0 0 0 0 0
0 0 0 0 0 0 0 0 0 0 0 0 0 0 0 0 0 0 0 0 0 0 0 0 0 0 0 1 21 20 17 12 0 0 0 0 0 0 0 0 0 0 0 0
0 0 0 0 0 0 0 0 0 0 0 0 0 0 0 0 0 0 0 0 0 0 0 0 4 0 0 20 23 33 20 0 0 0 0 0 0 0 0 0 0 0 0 0
0 0 0 0 0 0 0 0 0 0 0 0 0 0 0 0 0 0 0 0 0 0 1 1 0 0 7 26 22 27 2 0 0 0 0 0 0 0 0 0 0 0 0 0
0 0 0 0 0 0 0 0 0 0 0 0 0 0 0 0 0 0 0 0 0 0 2 11 18 22 39 31 5 0 0 0 0 0 0 0 0 0 0 0 0 0 0 0
0 0 0 0 0 0 0 0 0 0 0 0 0 0 0 0 0 0 0 0 0 9 37 55 19 16 10 0 0 0 0 0 0 0 0 0 0 0 0 0 0 0 0 0
CIN
-0 -0 -0 -0 -0 -0 -0 -0 -9 -4 -19 -10 -203 -301 -408 -471 -473 -479 -390 -411 -383 -412 -496 -0 -0 -0 -0 -0 -0 -0 -0 -0 -0 -0 -0 -0 -0 -0 -0 -0 -0 -0 -0 -0
-0 -0 -0 -0 -0 -0 -0 -0 -0 -0 -48 -201 -383 -491 -551 -500 -472 -392 -359 -370 -404 -448 -34 -0 -0 -0 -0 -0 -0 -0 -0 -0 -0 -0 -0 -0 -0 -0 -0 -0 -0 -0 -0 -0
-0 -0 -0 -0 -0 -0 -0 -0 -39 -44 -39 -335 -374 -448 -512 -493 -439 -378 -343 -388 -429 -470 -0 -0 -0 -0 -0 -0 -0 -0 -0 -0 -0 -0 -0 -0 -0 -0 -0 -0 -0 -0 -0 -0
-0 -0 -0 -0 -0 -0 -14 -68 -101 -141 -167 -293 -357 -459 -497 -486 -406 -352 -367 -464 -516 -0 -0 -0 -0 -0 -0 -0 -0 -0 -0 -0 -0 -0 -0 -0 -0 -0 -0 -0 -0 -0 -0 -0
-0 -0 -0 -0 -0 -0 -0 -17 -124 -123 -284 -417 -530 -517 -489 -472 -409 -354 -386 -526 -0 -0 -0 -0 -0 -0 -0 -0 -0 -0 -0 -0 -0 -0 -0 -0 -0 -0 -0 -0 -0 -0 -0 -0
-133 -31 -0 -2 -81 -191 -129 -18 -148 -206 -265 -361 -430 -165 -252 -461 -345 -276 -445 -0 -0 -0 -0 -0 -0 -0 -0 -0 -0 -0 -0 -0 -0 -0 -0 -0 -0 -0 -0 -0 -0 -0 -0 -0
-74 -39 -44 -83 -124 -145 -28 -19 -101 -188 -286 -323 -175 -183 -310 -422 -377 -470 -542 -0 -0 -0 -0 -0 -0 -0 -0 -0 -0 -0 -0 -0 -0 -0 -0 -0 -0 -0 -0 -0 -0 -0 -0 -0
-115 -72 -29 -203 -183 -30 -27 -110 -141 -247 -281 -251 -300 -382 -447 -507 -533 -625 -0 -0 -0 -0 -0 -0 -0 -0 -0 -0 -0 -0 -0 -0 -0 -0 -0 -0 -0 -0 -0 -0 -0 -0 -0 -0
-73 -48 -186 -165 -107 -105 -145 -96 -206 -262 -293 -318 -323 -421 -514 -569 -683 -0 -0 -0 -0 -0 -0 -0 -0 -0 -0 -0 -0 -0 -0 -0 -0 -0 -0 -0 -0 -0 -0 -0 -0 -0 -0 -0
-142 -59 -150 -220 -264 -368 -244 -134 -235 -276 -351 -360 -387 -521 -569 -692 -0 -0 -0 -0 -0 -0 -0 -0 -0 -0 -0 -0 -0 -0 -0 -0 -0 -0 -0 -0 -0 -0 -0 -0 -0 -0 -0 -0
-134 -126 -228 -188 -323 -316 -289 -202 -269 -453 -415 -369 -290 -562 -605 -315 -0 -0 -0 -0 -0 -0 -0 -0 -0 -0 -0 -0 -0 -0 -0 -0 -0 -0 -0 -0 -0 -0 -0 -0 -0 -0 -0 -0
-34 -240 -242 -280 -467 -411 -323 -340 -332 -183 -382 -578 -563 -0 -0 -0 -0 -0 -0 -0 -0 -0 -0 -0 -0 -0 -0 -0 -0 -0 -0 -0 -0 -0 -0 -0 -0 -0 -0 -0 -0 -0 -0 -0
-157 -420 -516 -552 -572 -555 -349 -394 -502 -454 -442 -509 -0 -0 -0 -0 -0 -0 -0 -0 -0 -0 -0 -0 -0 -0 -0 -0 -0 -0 -0 -0 -0 -0 -0 -0 -0 -0 -0 -0 -0 -0 -0 -0
-421 -513 -453 -568 -490 -637 -583 -683 -817 -631 -0 -0 -0 -0 -0 -0 -0 -0 -0 -0 -0 -0 -0 -0 -0 -0 -0 -0 -0 -0 -0 -0 -0 -0 -0 -0 -0 -0 -0 -0 -0 -0 -0 -0
-402 -530 -625 -753 -816 -868 -0 -0 -331 -0 -0 -0 -0 -0 -0 -0 -0 -0 -0 -0 -0 -0 -0 -0 -0 -0 -0 -0 -0 -0 -0 -0 -0 -0 -0 -0 -0 -0 -0 -0 -18 -16 -15 -27
-481 -654 -729 -782 -815 -826 -177 -665 -121 -0 -0 -0 -0 -0 -0 -0 -0 -0 -0 -0 -0 -0 -0 -0 -0 -0 -0 -0 -0 -0 -0 -0 -0 -0 -0 -0 -0 -0 -12 -11 -14 -13 -23 -32
-426 -531 -626 -655 -715 -19 -0 -0 -0 -0 -0 -0 -0 -0 -0 -0 -0 -0 -0 -0 -0 -0 -0 -0 -0 -0 -0 -0 -0 -0 -0 -0 -0 -0 -0 -0 -0 -1 -20 -25 -25 -42 -59 -51
-343 -412 -377 -364 -442 -0 -0 -0 -0 -0 -0 -0 -0 -0 -0 -0 -0 -0 -0 -0 -0 -0 -0 -0 -0 -0 -0 -0 -0 -0 -10 -0 -0 -0 -0 -0 -14 -24 -42 -57 -58 -62 -85 -33
-287 -81 -221 -238 -336 -0 -0 -0 -0 -0 -0 -0 -0 -0 -0 -0 -0 -0 -0 -0 -0 -0 -0 -0 -0 -0 -0 -0 -0 -0 -0 -0 -0 -0 -0 -0 -0 -0 -73 -66 -66 -32 -0 -0
-50 -0 -0 -0 -0 -0 -0 -0 -0 -0 -0 -0 -0 -0 -0 -0 -0 -0 -0 -0 -0 -0 -0 -0 -0 -0 -0 -0 -0 -0 -5 -46 -39 -6 -0 -0 -0 -0 -9 -8 -0 -0 -0 -0
-0 -0 -0 -0 -0 -0 -0 -0 -0 -0 -0 -0 -0 -0 -0 -0 -0 -0 -0 -0 -0 -0 -0 -0 -0 -0 -0 -0 -0 -0 -0 -0 -0 -9 -0 -0 -0 -51 -0 -0 -0 -0 -0 -0
-0 -0 -0 -0 -123 -0 -0 -0 -0 -0 -0 -0 -0 -0 -0 -0 -0 -0 -0 -0 -0 -0 -0 -0 -0 -2 -22 -0 -53 -61 -60 -76 -93 -113 -0 -0 -0 -0 -0 -0 -0 -0 -0 -0
-107 -0 -0 -0 -0 -0 -0 -0 -0 -0 -0 -0 -0 -0 -0 -0 -0 -0 -0 -0 -0 -0 -0 -0 -0 -0 -0 -95 -64 -73 -81 -94 -0 -0 -0 -0 -0 -0 -0 -0 -0 -0 -0 -0
-0 -0 -0 -0 -0 -0 -0 -0 -0 -0 -0 -0 -0 -0 -0 -0 -0 -0 -0 -0 -0 -0 -0 -8 -46 -19 -0 -74 -85 -84 -96 -6 -0 -0 -0 -0 -0 -0 -0 -0 -0 -0 -0 -0
-0 -0 -0 -0 -0 -0 -0 -0 -0 -0 -0 -0 -0 -0 -0 -0 -0 -0 -0 -0 -0 -0 -45 -5 -8 -0 -93 -80 -93 -87 -79 -0 -0 -0 -0 -0 -0 -0 -0 -0 -0 -0 -0 -0
-0 -0 -0 -0 -0 -0 -0 -0 -0 -0 -0 -0 -0 -0 -0 -0 -0 -0 -0 -0 -0 -0 -27 -35 -49 -59 -72 -69 -60 -0 -0 -0 -0 -0 -0 -0 -0 -0 -0 -0 -0 -0 -0 -0
-0 -0 -0 -0 -0 -0 -0 -0 -0 -0 -0 -0 -0 -0 -0 -0 -0 -0 -0 -0 -0 -23 -26 -40 -71 -86 -72 -0 -0 -0 -0 -0 -0 -0 -0 -0 -0 -0 -0 -0 -0 -0 -0 -0
Wind_Speed
25 25 20 20 20 19 17 19 16 22 15 9 2 6 7 8 7 6 7 8 10 12 12 12 13 14 16 17 19 21 23 24 23 22 24 25 26 27 28 29 29 29 28 28
25 23 23 26 24 19 19 19 23 25 24 16 1 4 5 8 6 7 7 7 7 9 10 11 12 14 15 17 19 20 21 21 21 22 24 25 26 26 27 27 27 27 28 29
26 21 20 27 25 20 19 17 15 16 17 8 3 5 7 11 8 7 8 6 6 7 8 10 11 13 15 17 19 20 21 21 21 22 23 23 24 24 25 26 26 27 29 30
22 16 27 23 20 19 15 20 13 21 14 6 1 2 5 8 8 8 8 8 6 7 8 10 12 13 15 17 19 19 19 20 20 21 21 21 22 23 24 25 27 28 30 31
21 23 24 22 18 15 16 22 11 13 7 4 2 3 1 4 6 6 7 8 9 9 10 10 11 13 16 18 18 18 20 20 20 20 20 20 21 22 23 25 27 28 29 30
20 22 24 21 12 13 15 27 9 5 2 5 8 1 3 8 4 6 7 8 8 9 9 10 12 13 16 17 17 17 17 17 18 19 20 20 21 22 23 24 25 25 27 28
24 25 25 19 13 10 21 24 5 5 7 7 4 11 5 7 6 10 10 10 9 9 8 10 11 14 15 15 15 16 16 16 17 18 18 20 20 21 21 22 23 25 26 26
23 26 28 12 8 17 22 22 7 8 8 8 3 2 8 9 10 11 11 10 10 9 9 10 11 12 14 14 14 15 16 16 16 17 18 19 20 20 20 22 24 25 26 26
27 27 23 5 20 13 12 14 7 8 12 8 5 5 11 12 12 8 10 11 10 9 9 10 11 12 12 13 13 14 14 15 16 17 18 18 19 20 21 23 25 26 25 26
28 28 30 24 25 21 10 8 4 7 13 10 9 11 14 12 10 9 9 9 9 8 9 10 11 12 12 12 13 13 14 15 15 16 18 18 17 19 21 23 25 26 27 27
30 33 29 29 18 17 13 4 3 4 9 13 13 12 12 10 10 9 9 9 8 8 9 11 11 11 11 12 12 13 14 14 15 17 18 19 20 20 21 21 23 24 24 24
28 24 25 25 25 27 10 11 6 7 14 10 12 12 9 8 8 8 9 8 8 9 10 10 10 11 11 11 11 12 13 14 16 17 18 19 20 22 19 21 22 20 16 18
29 25 28 29 26 24 17 8 7 7 13 11 5 8 8 8 8 8 8 8 8 9 10 10 10 10 11 11 11 12 13 13 15 16 17 18 21 22 25 27 25 23 19 17
32 29 29 24 24 15 9 9 5 6 6 6 7 5 5 6 8 7 7 9 9 10 10 10 11 10 10 11 12 12 12 13 15 16 18 20 21 22 22 24 27 27 23 21
29 27 28 17 13 9 4 5 7 7 6 5 4 4 5 7 6 6 7 9 9 10 10 11 11 10 10 11 11 12 13 14 16 17 19 20 21 20 21 23 23 23 24 23
22 19 16 12 7 5 6 7 8 7 6 6 6 6 5 6 6 7 8 8 8 8 9 10 10 10 11 10 11 12 14 14 15 16 19 19 19 20 22 24 24 23 23 24
19 17 9 6 4 5 5 6 6 8 7 7 6 5 6 6 6 7 7 8 9 9 10 10 10 11 11 10 11 12 13 15 14 14 17 21 20 19 22 24 25 26 25 24
23 22 21 9 7 3 7 6 3 4 6 4 6 6 6 5 6 7 7 9 9 10 10 11 11 12 11 11 11 12 12 14 14 15 18 20 20 21 23 25 27 28 25 26
32 23 11 2 4 6 11 9 2 1 3 5 4 4 5 6 7 8 9 9 10 10 9 10 10 10 11 11 12 13 13 14 15 17 19 20 22 22 24 26 27 27 28 29
9 7 8 9 11 16 8 4 2 0 2 5 5 4 5 7 8 9 9 9 10 10 10 10 10 11 11 12 13 14 14 14 15 19 22 24 25 24 23 23 26 28 29 29
9 9 9 13 14 15 14 9 6 5 5 7 7 6 7 9 9 9 9 8 8 9 9 9 10 11 12 12 13 13 15 16 19 23 24 25 25 24 24 25 27 29 29 28
9 9 5 6 10 9 7 6 5 6 8 9 7 7 9 9 8 8 8 8 9 9 9 9 10 10 11 12 13 14 16 18 20 23 23 24 24 25 25 27 28 28 28 27
6 3 6 9 12 12 8 8 8 10 10 10 10 10 10 9 8 9 8 8 8 9 9 9 10 10 11 12 14 17 18 18 20 20 22 23 24 25 26 28 27 26 26 27
7 6 7 6 8 9 9 7 9 10 10 10 10 10 9 9 9 9 10 10 9 9 9 9 10 10 12 14 17 18 19 19 19 20 21 21 23 25 26 27 26 25 25 26
6 11 9 4 6 7 7 9 10 9 9 9 9 10 10 10 10 9 9 9 8 9 9 10 11 14 16 17 17 18 18 19 19 19 20 22 24 26 26 25 24 25 25 25
10 10 11 10 10 9 10 10 9 10 10 10 10 10 10 9 10 11 10 10 10 10 11 13 14 16 16 18 18 18 19 19 18 19 21 22 24 26 25 24 24 24 24 25
8 9 9 8 8 10 10 11 10 10 10 11 11 10 10 10 10 11 11 11 11 12 14 15 16 15 16 18 19 20 20 19 18 18 21 23 25 25 24 23 23 23 23 24
Wind_Direction
270 273 273 274 272 280 279 279 283 291 299 317 232 137 118 107 84 39 44 65 71 80 65 48 39 32 27 24 15 7 1 360 2 4 2 358 356 355 354 354 356 356 356 355
273 273 274 270 273 278 282 285 284 286 290 307 354 119 116 115 100 89 84 82 65 62 65 51 36 29 27 19 13 8 6 7 10 9 5 1 1 3 5 5 6 6 5 2
271 277 275 270 266 274 282 283 292 291 297 306 178 162 150 132 118 99 104 92 66 51 51 45 41 32 22 14 12 8 9 11 12 12 11 11 13 12 11 10 11 9 6 3
274 275 269 276 275 271 271 287 292 288 304 306 253 142 137 131 114 107 105 96 67 57 55 54 44 32 24 17 12 15 18 19 19 18 17 19 16 16 16 14 12 9 6 5
274 270 279 276 271 264 274 281 283 289 316 311 89 84 275 136 120 110 100 94 86 76 75 65 47 33 21 15 15 18 17 19 17 17 20 23 21 21 17 14 11 10 10 8
275 274 270 272 276 274 286 274 276 271 241 156 141 256 287 139 114 99 97 87 78 80 66 43 32 26 17 15 17 21 29 27 27 28 29 29 25 19 17 14 14 14 11 10
268 270 271 272 281 289 274 280 254 216 181 173 194 302 99 119 100 105 104 96 86 76 50 32 30 24 19 22 27 31 31 34 36 36 33 26 23 22 19 17 15 11 9 11
271 267 265 275 286 286 299 289 273 233 195 168 266 43 108 112 106 108 102 94 91 72 52 38 30 27 24 30 36 36 38 43 42 37 29 25 23 22 21 16 13 10 10 10
264 270 274 250 284 313 332 301 279 187 164 168 164 126 115 115 108 99 100 97 90 74 58 44 40 37 35 40 45 48 47 44 38 31 27 25 22 21 17 14 11 11 12 12
268 271 268 272 275 292 315 308 258 196 159 151 141 124 117 111 104 101 96 94 80 67 52 39 39 40 41 47 51 50 43 38 34 32 26 27 29 23 18 16 13 10 11 12
264 262 272 270 286 280 287 260 241 183 172 146 134 128 122 110 100 96 95 85 77 56 40 34 39 43 48 50 49 40 36 39 38 34 33 32 29 25 21 18 15 11 13 14
264 275 279 276 271 252 267 249 195 173 162 156 140 131 121 100 94 97 95 81 61 46 38 37 42 44 55 56 53 42 43 46 40 35 31 28 22 16 22 15 8 11 17 18
268 275 275 271 267 256 258 245 232 207 163 160 154 126 118 104 100 93 78 63 55 41 39 45 45 55 57 54 52 47 49 45 38 30 25 20 14 12 9 6 10 12 15 15
266 270 266 275 269 268 250 248 228 189 191 157 142 117 97 90 93 73 49 54 46 40 47 47 53 56 54 53 55 52 46 41 31 23 19 14 12 12 12 9 7 12 19 20
268 262 259 279 274 257 221 192 182 175 164 149 140 115 107 101 85 49 36 39 42 49 49 53 51 51 53 60 53 46 35 26 22 19 16 13 14 17 15 11 10 11 9 11
263 261 261 269 259 226 204 168 150 151 145 130 118 106 89 77 56 34 28 38 48 57 58 53 51 50 56 61 44 33 24 19 18 16 13 13 12 12 9 5 4 4 4 3
247 245 238 218 192 202 212 197 157 137 126 118 108 92 78 58 34 23 33 44 52 58 61 59 54 55 59 55 37 27 21 17 18 20 15 8 10 9 4 359 358 357 357 358
230 244 230 137 134 204 234 223 145 135 125 123 96 86 76 61 51 54 56 56 58 64 70 66 62 61 55 45 37 29 25 24 27 22 10 7 7 2 359 356 355 356 1 2
229 235 232 249 165 145 220 227 136 174 108 98 86 58 49 54 68 68 70 65 66 71 64 64 62 54 42 40 34 31 29 23 17 10 6 5 3 1 358 357 358 0 1 0
213 178 125 109 116 130 158 209 137 280 53 74 56 40 48 65 79 81 79 77 72 53 51 53 50 41 41 35 31 23 18 13 9 1 358 357 357 2 5 8 3 0 1 2
173 165 144 115 113 118 112 107 92 73 73 77 75 62 73 86 89 87 78 67 62 64 51 46 40 32 35 31 23 17 13 8 1 354 355 357 1 6 6 6 4 3 3 5
182 168 168 131 116 112 104 96 76 66 77 76 64 69 81 85 82 76 65 56 46 49 38 40 41 41 35 27 20 12 4 1 357 355 358 1 3 3 4 4 3 4 7 9
187 169 144 121 119 120 110 94 84 86 88 85 85 87 86 81 80 82 71 71 51 48 47 45 44 43 34 20 11 4 1 1 1 4 3 3 5 5 5 3 5 8 9 9
133 134 128 122 113 113 107 92 87 87 85 84 88 85 74 67 67 64 43 39 57 59 59 54 40 29 18 11 5 5 7 8 9 6 7 10 9 8 6 6 8 11 11 12
146 122 118 145 126 119 104 95 86 79 76 78 84 85 80 77 66 73 60 53 67 71 54 45 34 17 9 7 8 12 14 13 11 13 13 11 9 7 7 11 13 13 13 14
129 125 105 117 115 113 105 99 85 83 83 82 80 83 76 69 56 47 48 62 66 52 36 20 16 13 19 21 21 18 14 12 16 15 14 12 10 10 12 14 15 15 15 15
112 104 97 91 92 101 100 97 91 85 86 88 90 86 78 66 54 48 47 53 40 31 21 17 18 28 29 24 19 17 15 17 19 19 16 13 12 12 14 16 16 18 18 18